User: anonymous   Login
Location: Caltech
(34.1382°N, 118.1253°W)
Time: 07:08:46
(UTC-07:00)
Language:

COSMOS 2428 - Orbit

View from above orbital plane
View from above orbital plane
View from above satellite
View from above satellite

Ground track
Ground track

The orbit data is extracted from the following two-line orbital elements,

1 31792U 07029A   15244.08767707  .00000137  00000-0  10000-3 0  9993
2 31792  70.9785 346.2417 0008286 196.0022 222.4779 14.12516596421573
Epoch (UTC): 01 September 2015 02:06:15
Eccentricity: 0.0008286
inclination: 70.9785°
perigee height: 845 km
apogee height: 857 km
right ascension of ascending node: 346.2417°
argument of perigee: 196.0022°
revolutions per day: 14.12516596
mean anomaly at epoch: 222.4779°
orbit number at epoch: 42157

The dashed part of the orbit path shows where the satellite is in the earth's shadow,  

DLR